This is the latest recevied weather packets stored in our database for station/object K5WNG. If no packets are shown the sender has not sent any weather packets the latest 10 day(s).
| Time | Temp. | Humidity | Pressure | Rain* | Wind** | Luminosity | Snow |
|---|---|---|---|---|---|---|---|
| 1777838720 | 27.78° C | 39% | 1019.8 hPa | 0 mm | - | 974 W/m² | - |
| 1777838421 | 27.78° C | 39% | 1020 hPa | 0 mm | - | 985 W/m² | - |
| 1777838118 | 27.78° C | 40% | 1019.9 hPa | 0 mm | - | 994 W/m² | - |
| 1777837821 | 27.78° C | 39% | 1020 hPa | 0 mm | - | 1005 W/m² | - |
| 1777837518 | 27.22° C | 40% | 1020 hPa | 0 mm | - | 1005 W/m² | - |
| 1777837221 | 27.22° C | 38% | 1020 hPa | 0 mm | - | 1016 W/m² | - |
| 1777836919 | 27.78° C | 39% | 1020.1 hPa | 0 mm | - | 1030 W/m² | - |
| 1777836618 | 27.22° C | 39% | 1020.3 hPa | 0 mm | - | 1036 W/m² | - |
| 1777836315 | 27.22° C | 38% | 1020.3 hPa | 0 mm | - | 1044 W/m² | - |
| 1777836024 | 27.78° C | 38% | 1020.3 hPa | 0 mm | - | 1047 W/m² | - |
| 1777835716 | 27.22° C | 41% | 1020.4 hPa | 0 mm | - | 1056 W/m² | - |
| 1777835416 | 27.22° C | 39% | 1020.4 hPa | 0 mm | - | 1059 W/m² | - |
| 1777835115 | 27.22° C | 39% | 1020.6 hPa | 0 mm | - | 1059 W/m² | - |
| 1777834819 | 27.22° C | 41% | 1020.7 hPa | 0 mm | - | 1068 W/m² | - |
| 1777834516 | 27.22° C | 40% | 1020.7 hPa | 0 mm | - | 1072 W/m² | - |
| 1777834216 | 27.22° C | 41% | 1020.8 hPa | 0 mm | - | 1069 W/m² | - |
| 1777833919 | 27.22° C | 41% | 1020.9 hPa | 0 mm | - | 1071 W/m² | - |
| 1777833616 | 27.22° C | 40% | 1021 hPa | 0 mm | - | 1078 W/m² | - |
| 1777833319 | 27.22° C | 40% | 1021 hPa | 0 mm | - | 1078 W/m² | - |
| 1777833016 | 27.22° C | 41% | 1021.2 hPa | 0 mm | - | 1072 W/m² | - |
| 1777832716 | 27.22° C | 41% | 1021.3 hPa | 0 mm | - | 1076 W/m² | - |
| 1777832419 | 27.22° C | 41% | 1021.3 hPa | 0 mm | - | 1076 W/m² | - |
| 1777832116 | 27.22° C | 41% | 1021.4 hPa | 0 mm | - | 1073 W/m² | - |
| 1777831817 | 27.22° C | 40% | 1021.4 hPa | 0 mm | - | 1057 W/m² | - |
| 1777831517 | 26.67° C | 41% | 1021.6 hPa | 0 mm | - | 1068 W/m² | - |
* Rain latest hour (hover to see other rain measurements)
** Current wind speed in m/s (hover to see current wind gust speed)